www.pogodaiklimat.ru

Погода и климат >> Архив погоды >> Норвегия >> Fedje


ПОГОДА в Fedje

  • Прогноз погоды в Fedje
  • Монитор погоды в Fedje
  • Климат города

АРХИВ ПОГОДЫ в Fedje

Время (UTC), дата Ветер
(напр.,м/с)
 
Видим.   Явления Облачность Т
(С)
Тd
(С)
f
(%)
Тe
(С)
Тes
(С)
Комфортность P
(гПа)
Po
(гПа)
Тmin
(С)
Tmax
(С)
R
(мм)
R24
(мм)
S
(см)
04 19.05 С 4
{7}
н/о н/о +7.1 +6.2 94 +3 +3 1013.3 1011.0
05 19.05 С 4
{7}
н/о н/о +7.3 +6.6 95 +4 +4 1013.5 1011.2
06 19.05 С 5
{7}
н/о н/о +7.9 +7.2 95 +4 +4 1013.2 1010.9 +6.8 +8.9
07 19.05 С 4
{8}
н/о н/о +8.2 +7.3 94 +5 +5 1013.9 1011.6
08 19.05 С 6
{8}
н/о н/о +9.5 +8.1 91 +6 +6 1013.1 1010.8
09 19.05 С 8
{10}
н/о н/о +10.0 +7.8 86 +6 +6 1012.8 1010.5
10 19.05 С 8
{11}
н/о н/о +10.7 +7.8 82 +7 +7 1012.4 1010.1
11 19.05 СЗ 8
{10}
н/о н/о +10.6 +7.3 80 +7 +7 1012.5 1010.2
12 19.05 С 7
{11}
н/о н/о +12.0 +7.9 76 +9 +9 1012.2 1009.9
13 19.05 С 7
{9}
н/о н/о +12.5 +8.2 75 +10 +10 1012.1 1009.8
14 19.05 С 6
{9}
н/о н/о +13.7 +8.1 69 +12 +12 1012.1 1009.8
15 19.05 С 5
{8}
н/о н/о +14.7 +8.4 66 +13 +13 1011.7 1009.4
16 19.05 С 5
{8}
н/о н/о +15.6 +8.1 61 +14 +14 1011.7 1009.4
17 19.05 С 5
{7}
н/о н/о +14.9 +7.9 63 +14 +14 1012.0 1009.7
18 19.05 С 4
{9}
н/о н/о +14.4 +8.6 68 +13 +13 1012.0 1009.7 +7.7 +16.1
19 19.05 С 4
{6}
н/о н/о +14.7 +8.4 66 +14 +14 1012.3 1010.0
20 19.05 С 5
{7}
н/о н/о +13.6 +8.2 70 +12 +12 1012.2 1009.9
21 19.05 С 6
{7}
н/о н/о +13.2 +8.5 73 +11 +11 1012.3 1010.0
22 19.05 СВ 6
{8}
н/о н/о +13.7 +8.1 69 +12 +12 1012.4 1010.1
23 19.05 В 5
{6}
н/о н/о +14.2 +8.2 67 +13 +13 1012.6 1010.3
00 20.05 В 5
{8}
н/о н/о +13.2 +7.7 69 +11 +11 1012.8 1010.5
01 20.05 В 5
{6}
н/о н/о +12.8 +7.9 72 +11 +11 1012.8 1010.5
02 20.05 В 5
{6}
н/о н/о +12.6 +7.9 73 +10 +10 1012.6 1010.3
03 20.05 В 4
{6}
н/о н/о +14.0 +7.3 64 +13 +13 1012.5 1010.2
04 20.05 В 4
{10}
н/о н/о +14.5 +7.6 63 +13 +13 1012.5 1010.2
05 20.05 СВ 3
{5}
н/о н/о +15.0 +8.0 63 +14 +14 1012.4 1010.1
06 20.05 СВ 2
{10}
н/о н/о +15.2 +8.7 65 +15 +15 1012.5 1010.2 +12.6 +15.7
07 20.05 В 1
{2}
н/о н/о +17.2 +9.1 59 +18 +18 1012.4 1010.2
08 20.05 В 3
{4}
н/о н/о +18.7 +7.8 49 +19 +19 1012.3 1010.1
09 20.05 В 3
{6}
н/о н/о +19.8 +8.5 48 +21 +21 комфорт 1012.3 1010.1
10 20.05 ЮВ 2
{3}
н/о н/о +21.0 +7.6 42 +23 +23 комфорт 1012.5 1010.3
11 20.05 СЗ 2
{3}
н/о н/о +18.5 +8.8 53 +19 +19 1012.4 1010.2
12 20.05 З 1
{6}
н/о н/о +17.4 +8.0 54 +18 +18 1012.4 1010.2
13 20.05 ЮЗ 1
{3}
н/о н/о +19.0 +9.2 53 +21 +21 комфорт 1012.8 1010.6
14 20.05 Ю 11
{14}
н/о н/о +10.5 +8.8 89 +6 +6 1015.5 1013.2
15 20.05 Ю 9
{13}
н/о н/о +10.2 +8.6 90 +6 +6 1016.6 1014.3
16 20.05 Ю 9
{13}
н/о н/о +10.2 +8.6 90 +6 +6 1017.5 1015.2
17 20.05 Ю 10
{13}
н/о н/о +9.9 +8.3 90 +5 +5 1018.3 1016.0
18 20.05 Ю 10
{14}
н/о н/о +9.6 +8.4 92 +5 +5 1018.9 1016.6 +9.6 +22.7
19 20.05 Ю 9
{12}
н/о н/о +9.6 +8.5 93 +5 +5 1019.7 1017.4
20 20.05 Ю 8
{12}
н/о н/о +9.6 +8.0 90 +5 +5 1020.2 1017.9
21 20.05 Ю 8
{10}
н/о н/о +9.7 +8.0 89 +5 +5 1020.8 1018.5
22 20.05 Ю 6
{9}
н/о н/о +9.6 +7.9 89 +6 +6 1021.0 1018.7
23 20.05 Ю 6
{7}
н/о н/о +9.5 +8.0 90 +6 +6 1021.0 1018.7
00 21.05 Ю 5
{12}
н/о н/о +9.5 +7.8 89 +6 +6 1021.3 1019.0
01 21.05 Ю 4
{7}
н/о н/о +9.3 +7.6 89 +6 +6 1021.4 1019.1
02 21.05 ЮВ 3
{5}
н/о н/о +9.1 +7.4 89 +7 +7 1021.3 1019.0
03 21.05 ЮВ 5
{6}
н/о н/о +8.9 +7.2 89 +5 +5 1021.2 1018.9
04 21.05 Ю 5
{7}
н/о н/о +9.1 +7.2 88 +6 +6 1021.1 1018.8
05 21.05 Ю 6
{8}
н/о н/о +9.0 +6.6 85 +5 +5 1021.0 1018.7
06 21.05 Ю 6
{8}
н/о н/о +9.1 +6.6 84 +5 +5 1021.0 1018.7 +8.9 +9.8
07 21.05 Ю 5
{8}
н/о н/о +9.6 +6.7 82 +6 +6 1020.9 1018.6
08 21.05 Ю 4
{7}
н/о н/о +9.8 +6.5 80 +7 +7 1021.0 1018.7
09 21.05 Ю 4
{6}
н/о н/о +9.9 +7.2 83 +7 +7 1021.3 1019.0
10 21.05 ЮЗ 5
{7}
н/о н/о +10.1 +7.4 83 +7 +7 1021.3 1019.0
11 21.05 ЮЗ 7
{9}
н/о н/о +10.2 +7.1 81 +7 +7 1021.3 1019.0
12 21.05 Ю 7
{10}
н/о н/о +10.0 +6.9 81 +6 +6 1021.1 1018.8
13 21.05 Ю 7
{10}
н/о н/о +9.9 +7.5 85 +6 +6 1021.2 1018.9
14 21.05 Ю 8
{10}
н/о н/о +9.9 +7.8 87 +6 +6 1021.3 1019.0
15 21.05 Ю 8
{11}
н/о н/о +9.8 +7.9 88 +6 +6 1021.2 1018.9
16 21.05 Ю 9
{11}
н/о н/о +9.6 +7.7 88 +5 +5 1021.1 1018.8
17 21.05 Ю 7
{11}
н/о н/о +9.1 +7.7 91 +5 +5 1021.0 1018.7
18 21.05 Ю 9
{11}
н/о н/о +9.4 +7.7 89 +5 +5 1021.0 1018.7 +9.0 +10.4
19 21.05 Ю 8
{11}
н/о н/о +9.3 +7.6 89 +5 +5 1021.1 1018.8
20 21.05 Ю 7
{10}
н/о н/о +9.2 +7.7 90 +5 +5 1021.2 1018.9
21 21.05 Ю 7
{10}
н/о н/о +9.2 +7.8 91 +5 +5 1021.4 1019.1
22 21.05 Ю 7
{8}
н/о н/о +9.0 +7.3 89 +5 +5 1021.6 1019.3
23 21.05 ЮЗ 7
{9}
н/о н/о +8.9 +7.0 88 +5 +5 1021.7 1019.4
00 22.05 Ю 6
{11}
н/о н/о +8.6 +7.4 92 +5 +5 1021.7 1019.4
01 22.05 Ю 6
{8}
н/о н/о +8.4 +7.2 92 +4 +4 1021.5 1019.2
02 22.05 ЮЗ 6
{7}
н/о н/о +8.4 +6.9 90 +4 +4 1021.2 1018.9
03 22.05 ЮЗ 5
{7}
н/о н/о +8.6 +6.7 88 +5 +5 1021.3 1019.0
04 22.05 ЮЗ 4
{5}
н/о н/о +8.8 +6.6 86 +6 +6 1021.3 1019.0
05 22.05 Ю 4
{5}
н/о н/о +9.1 +7.1 87 +6 +6 1021.2 1018.9
06 22.05 Ю 6
{8}
н/о н/о +9.2 +7.3 88 +5 +5 1021.2 1018.9 +8.4 +9.5
07 22.05 Ю 6
{8}
н/о н/о +9.3 +7.4 88 +6 +6 1021.2 1018.9
08 22.05 Ю 6
{8}
н/о н/о +9.5 +7.5 87 +6 +6 1021.3 1019.0
09 22.05 Ю 6
{9}
н/о н/о +9.7 +7.3 85 +6 +6 1021.2 1018.9
10 22.05 Ю 5
{7}
н/о н/о +10.5 +7.4 81 +8 +8 1021.3 1019.0
11 22.05 Ю 5
{7}
н/о н/о +10.3 +7.6 83 +7 +7 1021.0 1018.7
12 22.05 Ю 6
{9}
н/о н/о +10.2 +7.8 85 +7 +7 1020.7 1018.4
13 22.05 Ю 5
{6}
н/о н/о +10.9 +8.0 82 +8 +8 1020.5 1018.2
14 22.05 Ю 5
{6}
н/о н/о +11.2 +7.9 80 +9 +9 1020.0 1017.7
15 22.05 Ю 5
{6}
н/о н/о +10.9 +8.0 82 +8 +8 1019.6 1017.3
16 22.05 Ю 4
{5}
н/о н/о +10.7 +7.8 82 +8 +8 1019.1 1016.8
17 22.05 ЮЗ 5
{5}
н/о н/о +10.4 +7.6 83 +7 +7 1018.4 1016.1
18 22.05 Ю 3
{6}
н/о н/о +10.3 +7.7 84 +8 +8 1018.0 1015.7 +9.2 +11.3
19 22.05 Ю 3
{4}
н/о н/о +10.3 +7.4 82 +8 +8 1017.5 1015.2
20 22.05 ЮВ 2
{3}
н/о н/о +9.6 +7.2 85 +8 +8 1017.2 1014.9
21 22.05 Ю 2
{3}
н/о н/о +9.2 +7.3 88 +7 +7 1017.1 1014.8
22 22.05 В 3
{4}
н/о н/о +9.3 +6.2 81 +7 +7 1016.7 1014.4
23 22.05 В 3
{4}
н/о н/о +9.7 +7.3 85 +7 +7 1016.4 1014.1
10 25.05 З 5
{8}
н/о н/о +10.1 +9.3 95 +7 +7 1020.4 1018.1
11 25.05 З 6
{8}
н/о н/о +10.1 +9.3 95 +7 +7 1020.7 1018.4
12 25.05 З 4 н/о н/о +10.3 +9.4 94 +8 +8 1021.0 1018.7
13 25.05 З 4
{6}
н/о н/о +10.2 +9.4 95 +7 +7 1021.2 1018.9
14 25.05 З 4
{6}
н/о н/о +10.1 +9.3 95 +7 +7 1021.5 1019.2
15 25.05 З 3
{6}
н/о н/о +10.3 +9.5 95 +8 +8 1021.9 1019.6
16 25.05 З 3
{5}
н/о н/о +10.2 +9.4 95 +8 +8 1021.9 1019.6
17 25.05 ЮЗ 4
{5}
н/о н/о +9.9 +9.1 95 +7 +7 1021.9 1019.6
18 25.05 ЮЗ 4
{6}
н/о н/о +9.7 +8.9 95 +7 +7 1022.1 1019.8 +10.4
19 25.05 ЮЗ 3
{4}
н/о н/о +9.7 +8.9 95 +7 +7 1022.0 1019.7
20 25.05 ЮЗ 4
{4}
н/о н/о +9.8 +9.0 95 +7 +7 1022.1 1019.8
21 25.05 ЮЗ 3
{4}
н/о н/о +9.7 +8.9 95 +7 +7 1022.5 1020.2
22 25.05 ЮЗ 4
{4}
н/о н/о +9.7 +8.9 95 +7 +7 1022.6 1020.3
23 25.05 ЮЗ 4
{5}
н/о н/о +9.6 +8.8 95 +7 +7 1022.8 1020.5
00 26.05 ЮЗ 3
{5}
н/о н/о +9.6 +8.8 95 +7 +7 1022.7 1020.4
01 26.05 ЮЗ 3
{4}
н/о н/о +9.6 +8.8 95 +7 +7 1022.7 1020.4
02 26.05 Ю 4
{4}
н/о н/о +9.6 +8.8 95 +7 +7 1022.8 1020.5
03 26.05 Ю 3
{4}
н/о н/о +9.7 +8.9 95 +7 +7 1023.0 1020.7
04 26.05 Ю 3
{4}
н/о н/о +9.8 +9.0 95 +7 +7 1023.0 1020.7

 

Местоположение метеостанции Fedje (Норвегия): широта 60.78 долгота 4.72 высота над уровнем моря 19 м.

В архиве по умолчанию представлена погода в Fedje за последнюю неделю. Архивные данные за месяц целиком и за предыдущие месяцы, начиная с января 2011 года, Вы можете получить, выбрав интересующий диапазон дат из раскрывающегося списка и нажав кнопку "Ввод!".

Внимание! Время в таблицах - всемирное. Для получения местного времени необходимо прибавить поправку, которая в Fedje равна 1 ч.

Смотрите также архив погоды в соседних городах и на ближайших метеорологических станциях:

Погода в Takle (Норвегия) (45 км)
Погода в Bergen (Норвегия) (56 км)
Погода в Furuneset (Норвегия) (59 км)
Погода в Fossmark (Норвегия) (62 км)
Погода в Modalen III (Норвегия) (68 км)
Погода в Evanger (Норвегия) (77 км)
Погода в Kvamskogen (Норвегия) (82 км)
Погода в Bulken (Норвегия) (83 км)
Погода в Ytteroyane Fyr (Норвегия) (88 км)
Погода в Forde Lifthavn (Норвегия) (88 км)

Пояснения к столбцам:

Ветер - указаны скорость ветра в м/с - средняя за 10 мин, порывы в срок и между сроками (в фигурных скобках) и направление, откуда дует ветер: С - северный, СВ - северо-восточный, В - восточный, ЮВ - юго-восточный, Ю - южный, ЮЗ - юго-западный, З - западный, СЗ - северо-западный.
Видимость - горизонтальная дальность видимости в метрах или километрах. При видимости от 1 до 10 км при отсутствии осадков обычно наблюдается дымка, при ухудшении видимости до 1 км и менее - туман. В сухую погоду видимость может ухудшаться дымом, пылью или мглою.
Явления - указаны атмосферные явления, наблюдавшиеся в срок или в последний час перед сроком; фигурными скобками обозначены явления, наблюдавшиеся между сроками (за 1-3 часа до срока); квадратными скобками обозначены град или гололедные отложения с указанием их диаметра в мм.
Облачность - указаны через наклонную черту общая и нижняя облачность в баллах и высота нижней границы облаков в метрах; квадратными скобками обозначены формы облаков: Ci - перистые, Cs - перисто-слоистые, Cc - перисто-кучевые, Ac - высококучевые, As - высокослоистые, Sc - слоисто-кучевые, Ns - слоисто-дождевые, Cu - кучевые, Cb - кучево-дождевые. Подробнее классификацию облаков см. в Атласе облаков (PDF).
T - Температура воздуха - температура, измеренная на высоте 2 м над землей.
Td - Температура точки росы - температура, при понижении до которой содержащийся в воздухе водяной пар достигнет насыщения.
f - Относительная влажность воздуха - влажноcть воздуха, измеренная на высоте 2 м над землей.
Te - Эффективная температура - температура, которую ощущает одетый по сезону человек в тени. Характеристика душности погоды. При расчете учитывается влияние влажности воздуха и скорости ветра на теплоощущения человека.
Tes - Эффективная температура на солнце - температура, которую ощущает человек, с поправкой на солнечный нагрев. Характеристика знойности погоды. Зависит от высоты солнца над горизонтом, облачности и скорости ветра. Ночью, в пасмурную погоду, а также при ветре 12 м/с и более поправка равна нулю.
P - Атмосферное давление - приведенное к уровню моря атмосферное давление.
Po - Атмосферное давление - измеренное на уровне метеостанции атмосферное давление.
Tmin - Минимальная температура - минимум температуры воздуха на высоте 2 м над землей.
Tmax - Максимальная температура - максимум температуры воздуха на высоте 2 м над землей.
R - Количество осадков - Количество выпавших осадков за период времени, мм. При наведении курсора мыши на число - период времени, за который выпало указанное количество осадков.
R24 - Количество осадков - Количество выпавших осадков за 24 часа, мм.
S - Снежный покров - Высота снежного покрова, см. При наведении курсора мыши на число - состояние снежного покрова и степень покрытия местности в баллах.